This is the latest recevied weather packets stored in our database for station/object SP8EBC-11. If no packets are shown the sender has not sent any weather packets the latest 10 day(s).
| Time | Temp. | Humidity | Pressure | Rain* | Wind** | Luminosity | Snow |
|---|---|---|---|---|---|---|---|
| 1787743851 | 18.89° C | 84% | 1007 hPa | - | - | - | - |
| 1787743731 | 18.89° C | 84% | 1007.1 hPa | - | - | - | - |
| 1787743611 | 19.44° C | 84% | 1006.9 hPa | - | - | - | - |
| 1787743491 | 19.44° C | 84% | 1006.6 hPa | - | - | - | - |
| 1787743371 | 19.44° C | 84% | 1006.5 hPa | - | - | - | - |
| 1787743251 | 19.44° C | 84% | 1006.4 hPa | - | - | - | - |
| 1787743131 | 19.44° C | 85% | 1006.3 hPa | - | - | - | - |
| 1787743013 | 19.44° C | 85% | 1006.3 hPa | - | - | - | - |
| 1787742891 | 18.89° C | 85% | 1006.2 hPa | - | - | - | - |
| 1787742771 | 18.89° C | 85% | 1006.2 hPa | - | - | - | - |
| 1787742651 | 18.89° C | 85% | 1006.2 hPa | - | - | - | - |
| 1787742531 | 18.89° C | 86% | 1006.1 hPa | - | - | - | - |
| 1787742411 | 18.33° C | 86% | 1006.2 hPa | - | - | - | - |
| 1787742291 | 18.33° C | 86% | 1006.4 hPa | - | - | - | - |
| 1787742171 | 18.33° C | 86% | 1006.4 hPa | - | - | - | - |
| 1787742050 | 18.33° C | 86% | 1006.4 hPa | - | - | - | - |
| 1787741930 | 18.33° C | 86% | 1006.5 hPa | - | - | - | - |
| 1787741810 | 18.33° C | 86% | 1006.7 hPa | - | - | - | - |
| 1787741690 | 17.78° C | 86% | 1006.8 hPa | - | - | - | - |
| 1787741570 | 17.78° C | 86% | 1006.9 hPa | - | - | - | - |
| 1787741450 | 18.33° C | 86% | 1006.9 hPa | - | - | - | - |
| 1787741330 | 18.33° C | 86% | 1006.9 hPa | - | - | - | - |
| 1787741212 | 18.33° C | 86% | 1006.9 hPa | - | - | - | - |
| 1787741090 | 18.33° C | 86% | 1006.9 hPa | - | - | - | - |
| 1787740969 | 18.33° C | 86% | 1006.9 hPa | - | - | - | - |
* Rain since midnight (hover to see other rain measurements)
** Current wind speed in m/s (hover to see current wind gust speed)